Weather in Gorin

Russia / Khabarovsk Krai     51°11′53″N   136°39′19″E
temp.,
°C
wind,
m/s
gust,
m/s
humid.,
%
clouds,
%
prec.,
mm/h
press.,
hPa
HPBL,
m
6 march, sat
sat601:00−24nw2290100 0.0 102420
04:00−27wsw0090100 0.0 102419
07:00−28sw119133 0.0 102519
10:00−20wsw377217 0.0 1025488
13:00−16sw35670 0.0 1023977
16:00−13s457240 0.0 1021719
19:00−20s469566 0.0 1023117
22:00−23sse339734 0.0 102430
7 march, sun
sun701:00−24s23950 0.0 102420
04:00−26sse23961 0.0 102425
07:00−27sse2210021 0.0 102320
10:00−21sse349220 0.0 1022263
13:00−16sse478720 0.0 1020470
16:00−13sse478421 0.0 1018495
19:00−18se33930 0.0 101935
22:00−20sse23960 0.0 102120
8 march, mon
mon801:00−21s22950 0.0 102120
04:00−22s22960 0.0 102120
07:00−22s22960 0.0 102120
10:00−17sse35910 0.0 1020226
13:00−11sse46874 0.0 1018357
16:00−8sse488619 0.0 1016331
19:00−13sse479375 0.0 1016154
22:00−13sse369587 0.0 1016154
9 march, tue
tue901:00−11sse3694100 0.1 1014180
04:00−11sse4794100 0.2 1013256
07:00−10sse4693100 0.1 1010217
10:00−9sse3589100 0.1 1007281
13:00−6sse3589100 0.0 1005348
16:00−4ese1289100 0.1 1004328
19:00−6nnw2295100 0.1 100679
22:00−8nw41189100 0.2 1009388
10 march, wed
wed1001:00−10nw4129299 0.0 1011367
04:00−10nnw4129099 0.1 1014469
07:00−10nnw4129091 0.1 1018534
10:00−7nnw5108795 0.1 1019579
13:00−4nnw467744 0.0 1019872
16:00−2nw236922 0.0 10181006
19:00−7sse227917 0.0 102021
22:00−10sse23888 0.0 102221